Find Geely Xingzuo 04 zu 03 xing

NORAD ID: 65121 Int'l Des: 2025-170 Owner: GEESP Country: CN Constellation: geesatcom operational
LEOCIRCULAR

現在のビュー

3D地球を読み込み中...

Geely Xingzuo 04 zu 03 xingについて

説明を読み込み中...

次回通過

Passes for default location (London). Set your location on the main map for personalized predictions.

高度履歴

Loading altitude history...

軌道要素

1 65121U 25170C 26146.57096627 .00001579 00000-0 21460-3 0 9999
2 65121 49.9932 274.3372 0020400 337.9322 22.0736 14.83975305 43222
Epoch: May 26, 2026 • Age: 7 hours

現在のステータス

高度 632.4 km
速度 7.54 km/s
衛星直下点 -29.12°S, 81.13°W
打ち上げ日 Aug 8, 2025
運用期間 0.7 years
タイプ other

技術仕様

分類 Payload
質量 130.00 kg
乾燥質量 130.00 kg
総質量 130.00 kg
長さ 1.00 m
直径 0.50 m
スパン 2.00 m
形状 Box + 2 pan
製造者 GWCG
バスタイプ GPS100
フェーズステータス In Orbit
所有者/国 GEESP/CN

Most Searched